Regional Weather Roundup
Issued by NWS New Orleans/Baton Rouge, LA

Home | Current Version | Previous Version | Text Only | Print | Product List | Glossary On
Versions: 1 2 3 4 5 6 7 8 9 10 11 12 13 14 15 16 17 18 19 20 21 22 23 24 25 26 27 28 29 30 31 32 33 34 35 36 37 38 39 40 41 42 43 44 45 46 47 48 49 50
000
ASUS44 KLIX 240613
RWRLIX
NEW ORLEANS REGIONAL WEATHER ROUNDUP
NATIONAL WEATHER SERVICE NEW ORLEANS LA
100 AM CDT TUE OCT 24 2017

NOTE: "FAIR" INDICATES FEW OR NO CLOUDS BELOW 12,000 FEET WITH NO
      SIGNIFICANT WEATHER AND/OR OBSTRUCTIONS TO VISIBILITY.
      SKY/WX - SKY CONDITION AND SIGNIFICANT WEATHER.
      TMP - AIR TEMPERATURE.     DP    - DEWPOINT TEMPERATURE.
      RH  - RELATIVE HUMIDITY.   PRES  - PRESSURE.
      HI  - HEAT INDEX.          WCI   - WIND CHILL INDEX.

*  THESE STATIONS ARE NOT NWS OR FAA STATIONS AND ARE NOT UNDER
   NWS QUALITY CONTROL.

LAZ038-040-048-061>063-065>067-069-240700-
SOUTHEAST LOUISIANA

CITY           SKY/WX    TMP DP  RH WIND       PRES   REMARKS
N.O. INTL ARPT CLEAR     56  56 100 W5        30.08R
6HR MIN TEMP:  54; 6HR MAX TEMP:  69;

N.O. LAKEFRONT CLEAR     68  48  48 NW9       30.07S
6HR MIN TEMP:  67; 6HR MAX TEMP:  71;

N.O. DOWNTOWN*   N/A     65  52  62 CALM      30.08S
6HR MIN TEMP:  64; 6HR MAX TEMP:  71;

RESERVE*         N/A     58  56  92 CALM      30.09S
6HR MIN TEMP:  57; 6HR MAX TEMP:  66;

SLIDELL        CLEAR     51  48  89 CALM      30.07R
6HR MIN TEMP:  51; 6HR MAX TEMP:  62;

BATON ROUGE    CLEAR     54  51  90 CALM      30.08S
6HR MIN TEMP:  53; 6HR MAX TEMP:  62;

BOOTHVILLE     CLEAR     71  50  47 N6        30.06S
6HR MIN TEMP:  71; 6HR MAX TEMP:  74;

BELLE CHASSE     N/A    N/A N/A N/A MISG      30.07S
BOGALUSA*        N/A     51  48  90 CALM      30.09R
6HR MIN TEMP:  51; 6HR MAX TEMP:  60;

GALLIANO*      CLEAR     54  51  88 CALM      30.07F
6HR MIN TEMP:  54; 6HR MAX TEMP:  62;

NEW ROADS*       N/A     54  53  97 CALM      30.08F
6HR MIN TEMP:  53; 6HR MAX TEMP:  63;

GONZALES*        N/A     51  49  93 CALM      30.08S
6HR MIN TEMP:  51; 6HR MAX TEMP:  60;

HAMMOND*       CLEAR     52  48  87 CALM      30.08S
HOUMA*         CLEAR    N/A N/A N/A CALM      30.09R
PORT FOURCHON* CLEAR     64  57  77 NW5       30.08S

$$

MSZ070-080>082-240700-
SOUTHERN MISSISSIPPI

CITY           SKY/WX    TMP DP  RH WIND       PRES   REMARKS
MCCOMB         CLEAR     50  47  89 CALM      30.06F
6HR MIN TEMP:  49; 6HR MAX TEMP:  59;

GULFPORT       CLEAR     55  51  86 NW5       30.05S
6HR MIN TEMP:  53; 6HR MAX TEMP:  64;

BILOXI         CLEAR     58  50  74 NW7       30.05S
6HR MIN TEMP:  57; 6HR MAX TEMP:  66;

PASCAGOULA     PTCLDY    54  51  90 CALM      30.05R FOG
6HR MIN TEMP:  53; 6HR MAX TEMP:  65;


$$

COASTAL OBSERVATIONS
LAKE AND NEARSHORE STATIONS

STATION/POSITION TIME  TEMP    WIND        PRES    WAVE
                       AIR SEA DIR/SP/G            HT/PER
                 (UTC) (F)     (DEG/KT/KT) (MB)    (FT/S)
PASCAGOULA       0548   56     320/  7/  7 1017.0
WAVELAND YACHT   0548   58 73  280/  5/  5 1017.8
GRAND ISLE       0548   69 76  360/  9/  9 1018.1
SOUTHWEST PASS   0548   71 78   20/ 12/ 15 1018.2
NEW CANAL        0548   69 74  330/  2/  6 1018.1
SHELL BEACH      0548   69 74  330/  6/  7 1018.0

OFFSHORE STATIONS

STATION/POSITION TIME  TEMP    WIND        PRES    WAVE
                       AIR SEA DIR/SP/G            HT/PER
                 (UTC) (F)     (DEG/KT/KT) (MB)    (FT/S)
64 S DAUPHIN ISL 0550   72 81  360/ 12/ 17 1017.0    3/ 5

$$




USA.gov is the U.S. government's official web portal to all federal, state and local government web resources and services.